Time,TemperatureF,DewpointF,PressureIn,WindDirection,WindDirectionDegrees,WindSpeedMPH,WindSpeedGustMPH,Humidity,HourlyPrecipIn,Conditions,Clouds,dailyrainin,SoftwareType,DateUTC
2014-08-23 00:01:00,59.4,54.5,30.29,NNE,23,0.0,0.0,84,0.00,OVC,OVC,0.00,WeatherDisplay:10.34,2014-08-23 04:01:00,
2014-08-23 00:02:00,59.4,54.5,30.29,NNE,24,0.0,0.0,84,0.00,OVC,OVC,0.00,WeatherDisplay:10.34,2014-08-23 04:02:00,
2014-08-23 00:07:00,59.4,54.5,30.29,NNE,24,0.0,0.0,84,0.00,OVC,OVC,0.00,WeatherDisplay:10.34,2014-08-23 04:07:00,
2014-08-23 00:08:00,59.4,54.5,30.29,NNE,24,0.0,0.0,84,0.00,OVC,OVC,0.00,WeatherDisplay:10.34,2014-08-23 04:08:00,
2014-08-23 00:13:00,59.4,54.2,30.29,NNE,25,0.0,0.0,83,0.00,OVC,OVC,0.00,WeatherDisplay:10.34,2014-08-23 04:13:00,
2014-08-23 00:19:00,59.2,54.0,30.29,NNE,29,0.0,0.0,83,0.00,OVC,OVC,0.00,WeatherDisplay:10.34,2014-08-23 04:19:00,
2014-08-23 00:21:00,59.2,54.0,30.29,NE,35,0.0,0.0,83,0.00,OVC,OVC,0.00,WeatherDisplay:10.34,2014-08-23 04:21:00,
2014-08-23 00:26:00,59.2,54.0,30.29,NNE,32,0.0,0.0,83,0.00,OVC,OVC,0.00,WeatherDisplay:10.34,2014-08-23 04:26:00,
2014-08-23 00:31:00,59.2,54.0,30.29,NNE,31,0.0,0.0,83,0.00,OVC,OVC,0.00,WeatherDisplay:10.34,2014-08-23 04:31:00,
2014-08-23 00:34:00,59.2,54.0,30.29,NNE,22,0.0,0.0,83,0.00,OVC,OVC,0.00,WeatherDisplay:10.34,2014-08-23 04:34:00,
2014-08-23 00:39:00,59.2,54.0,30.29,NNE,21,0.0,0.0,83,0.00,OVC,OVC,0.00,WeatherDisplay:10.34,2014-08-23 04:39:00,
2014-08-23 00:44:00,59.2,54.0,30.29,NNE,21,0.0,0.0,83,0.00,OVC,OVC,0.00,WeatherDisplay:10.34,2014-08-23 04:44:00,
2014-08-23 00:49:00,59.2,54.0,30.29,NNE,21,0.0,0.0,83,0.00,OVC,OVC,0.00,WeatherDisplay:10.34,2014-08-23 04:49:00,
2014-08-23 00:54:00,59.2,54.0,30.29,NNE,21,0.0,0.0,83,0.00,OVC,OVC,0.00,WeatherDisplay:10.34,2014-08-23 04:54:00,
2014-08-23 00:59:00,59.0,53.8,30.29,NNE,21,0.0,0.0,83,0.00,OVC,OVC,0.00,WeatherDisplay:10.34,2014-08-23 04:59:00,
2014-08-23 01:04:00,59.0,53.8,30.29,NNE,22,0.0,0.0,83,0.00,OVC,OVC,0.00,WeatherDisplay:10.34,2014-08-23 05:04:00,
2014-08-23 01:09:00,59.0,53.8,30.29,NNE,22,0.0,0.0,83,0.00,OVC,OVC,0.00,WeatherDisplay:10.34,2014-08-23 05:09:00,
2014-08-23 01:14:00,58.8,53.7,30.29,NNE,24,0.0,0.0,83,0.00,OVC,OVC,0.00,WeatherDisplay:10.34,2014-08-23 05:14:00,
2014-08-23 01:19:00,58.8,54.0,30.29,NNE,28,0.0,0.0,84,0.00,OVC,OVC,0.00,WeatherDisplay:10.34,2014-08-23 05:19:00,
2014-08-23 01:24:00,58.8,54.0,30.29,NNE,22,0.0,0.0,84,0.00,OVC,OVC,0.00,WeatherDisplay:10.34,2014-08-23 05:24:00,
2014-08-23 01:29:00,58.6,53.8,30.30,NNE,23,0.0,0.0,84,0.00,OVC,OVC,0.00,WeatherDisplay:10.34,2014-08-23 05:29:00,
2014-08-23 01:34:00,58.6,53.8,30.30,NNE,23,0.0,0.0,84,0.00,OVC,OVC,0.00,WeatherDisplay:10.34,2014-08-23 05:34:00,
2014-08-23 01:39:00,58.6,53.8,30.30,NNE,23,0.0,0.0,84,0.00,OVC,OVC,0.00,WeatherDisplay:10.34,2014-08-23 05:39:00,
2014-08-23 01:44:00,58.5,53.6,30.30,NNE,24,0.0,0.0,84,0.00,OVC,OVC,0.00,WeatherDisplay:10.34,2014-08-23 05:44:00,
2014-08-23 01:49:00,58.5,53.6,30.29,NNE,29,0.0,0.0,84,0.00,OVC,OVC,0.00,WeatherDisplay:10.34,2014-08-23 05:49:00,
2014-08-23 01:54:00,58.6,54.1,30.29,NNE,21,0.0,0.0,85,0.00,OVC,OVC,0.00,WeatherDisplay:10.34,2014-08-23 05:54:00,
2014-08-23 01:59:00,58.6,54.1,30.29,NNE,21,0.0,0.0,85,0.00,OVC,OVC,0.00,WeatherDisplay:10.34,2014-08-23 05:59:00,
2014-08-23 02:04:00,58.6,53.8,30.29,NNE,21,0.0,0.0,84,0.00,OVC,OVC,0.00,WeatherDisplay:10.34,2014-08-23 06:04:00,
2014-08-23 02:09:00,58.5,53.6,30.29,NNE,22,0.0,0.0,84,0.00,OVC,OVC,0.00,WeatherDisplay:10.34,2014-08-23 06:09:00,
2014-08-23 02:14:00,58.5,53.6,30.29,NNE,26,0.0,0.0,84,0.00,OVC,OVC,0.00,WeatherDisplay:10.34,2014-08-23 06:14:00,
2014-08-23 02:19:00,58.5,53.6,30.29,NNE,25,0.0,0.0,84,0.00,OVC,OVC,0.00,WeatherDisplay:10.34,2014-08-23 06:19:00,
2014-08-23 02:24:00,58.3,53.5,30.29,NNE,20,0.0,0.0,84,0.00,OVC,OVC,0.00,WeatherDisplay:10.34,2014-08-23 06:24:00,
2014-08-23 02:29:00,58.3,53.5,30.29,NNE,19,0.0,0.0,84,0.00,OVC,OVC,0.00,WeatherDisplay:10.34,2014-08-23 06:29:00,
2014-08-23 02:34:00,58.1,53.3,30.29,NNE,19,0.0,0.0,84,0.00,OVC,OVC,0.00,WeatherDisplay:10.34,2014-08-23 06:34:00,
2014-08-23 02:39:00,58.1,53.6,30.29,NNE,19,0.0,0.0,85,0.00,OVC,OVC,0.00,WeatherDisplay:10.34,2014-08-23 06:39:00,
2014-08-23 02:44:00,58.1,53.9,30.29,NNE,20,0.0,0.0,86,0.00,OVC,OVC,0.00,WeatherDisplay:10.34,2014-08-23 06:44:00,
2014-08-23 02:49:00,57.9,53.8,30.29,NNE,20,0.0,0.0,86,0.00,OVC,OVC,0.00,WeatherDisplay:10.34,2014-08-23 06:49:00,
2014-08-23 02:54:00,57.9,53.4,30.30,NNE,22,0.0,0.0,85,0.00,OVC,OVC,0.00,WeatherDisplay:10.34,2014-08-23 06:54:00,
2014-08-23 02:59:00,57.7,53.3,30.30,NNE,24,0.0,0.0,85,0.00,OVC,OVC,0.00,WeatherDisplay:10.34,2014-08-23 06:59:00,
2014-08-23 03:04:00,57.6,53.4,30.30,NNE,22,0.0,0.0,86,0.00,OVC,OVC,0.00,WeatherDisplay:10.34,2014-08-23 07:04:00,
2014-08-23 03:09:00,57.6,53.4,30.30,NNE,21,0.0,0.0,86,0.00,OVC,OVC,0.00,WeatherDisplay:10.34,2014-08-23 07:09:00,
2014-08-23 03:14:00,57.6,53.4,30.30,NNE,22,0.0,0.0,86,0.00,OVC,OVC,0.00,WeatherDisplay:10.34,2014-08-23 07:14:00,
2014-08-23 03:19:00,57.7,53.6,30.30,NNE,22,0.0,0.0,86,0.00,OVC,OVC,0.00,WeatherDisplay:10.34,2014-08-23 07:19:00,
2014-08-23 03:24:00,57.7,53.6,30.30,NNE,22,0.0,0.0,86,0.00,OVC,OVC,0.00,WeatherDisplay:10.34,2014-08-23 07:24:00,
2014-08-23 03:29:00,57.7,53.6,30.30,NNE,22,0.0,0.0,86,0.00,OVC,OVC,0.00,WeatherDisplay:10.34,2014-08-23 07:29:00,
2014-08-23 03:34:00,57.9,54.1,30.30,NNE,22,0.0,0.0,87,0.00,OVC,OVC,0.00,WeatherDisplay:10.34,2014-08-23 07:34:00,
2014-08-23 03:39:00,57.9,54.1,30.30,NNE,22,0.0,0.0,87,0.00,OVC,OVC,0.00,WeatherDisplay:10.34,2014-08-23 07:39:00,
2014-08-23 03:44:00,57.9,54.1,30.30,NNE,22,0.0,0.0,87,0.00,OVC,OVC,0.00,WeatherDisplay:10.34,2014-08-23 07:44:00,
2014-08-23 03:49:00,57.9,54.1,30.29,NNE,22,0.0,0.0,87,0.00,OVC,OVC,0.00,WeatherDisplay:10.34,2014-08-23 07:49:00,
2014-08-23 03:54:00,57.9,54.1,30.29,NNE,27,0.0,0.0,87,0.00,OVC,OVC,0.00,WeatherDisplay:10.34,2014-08-23 07:54:00,
2014-08-23 03:59:00,57.9,54.1,30.29,NNE,20,0.0,0.0,87,0.00,OVC,OVC,0.00,WeatherDisplay:10.34,2014-08-23 07:59:00,
2014-08-23 04:04:00,57.9,54.1,30.29,NNE,19,0.0,0.0,87,0.00,OVC,OVC,0.00,WeatherDisplay:10.34,2014-08-23 08:04:00,
2014-08-23 04:09:00,57.7,53.6,30.30,NNE,20,0.0,0.0,86,0.00,OVC,OVC,0.00,WeatherDisplay:10.34,2014-08-23 08:09:00,
2014-08-23 04:14:00,57.6,53.4,30.30,NNE,19,0.0,0.0,86,0.00,OVC,OVC,0.00,WeatherDisplay:10.34,2014-08-23 08:14:00,
2014-08-23 04:19:00,57.4,53.2,30.30,NNE,20,0.0,0.0,86,0.00,OVC,OVC,0.00,WeatherDisplay:10.34,2014-08-23 08:19:00,
2014-08-23 04:24:00,57.2,53.0,30.30,NNE,20,0.0,0.0,86,0.00,OVC,OVC,0.00,WeatherDisplay:10.34,2014-08-23 08:24:00,
2014-08-23 04:29:00,57.2,52.7,30.30,NNE,21,0.0,0.0,85,0.00,OVC,OVC,0.00,WeatherDisplay:10.34,2014-08-23 08:29:00,
2014-08-23 04:34:00,57.0,52.6,30.30,NNE,21,0.0,0.0,85,0.00,OVC,OVC,0.00,WeatherDisplay:10.34,2014-08-23 08:34:00,
2014-08-23 04:39:00,57.0,52.6,30.30,NNE,22,0.0,0.0,85,0.00,OVC,OVC,0.00,WeatherDisplay:10.34,2014-08-23 08:39:00,
2014-08-23 04:44:00,56.8,52.4,30.30,NNE,21,0.0,0.0,85,0.00,OVC,OVC,0.00,WeatherDisplay:10.34,2014-08-23 08:44:00,
2014-08-23 04:49:00,56.8,52.4,30.30,NNE,20,0.0,2.0,85,0.00,OVC,OVC,0.00,WeatherDisplay:10.34,2014-08-23 08:49:00,
2014-08-23 04:54:00,56.8,52.4,30.30,NNE,21,0.0,0.0,85,0.00,OVC,OVC,0.00,WeatherDisplay:10.34,2014-08-23 08:54:00,
2014-08-23 04:59:00,56.8,52.4,30.30,NNE,21,0.0,0.0,85,0.00,OVC,OVC,0.00,WeatherDisplay:10.34,2014-08-23 08:59:00,
2014-08-23 05:04:00,56.7,52.2,30.30,NNE,22,0.0,0.0,85,0.00,CLR,CLR,0.00,WeatherDisplay:10.34,2014-08-23 09:04:00,
2014-08-23 05:09:00,56.7,52.2,30.30,NNE,29,0.0,0.0,85,0.00,CLR,CLR,0.00,WeatherDisplay:10.34,2014-08-23 09:09:00,
2014-08-23 05:14:00,56.7,52.2,30.30,NNW,347,0.0,2.0,85,0.00,CLR,CLR,0.00,WeatherDisplay:10.34,2014-08-23 09:14:00,
2014-08-23 05:19:00,56.7,52.2,30.30,North,351,0.0,0.0,85,0.00,CLR,CLR,0.00,WeatherDisplay:10.34,2014-08-23 09:19:00,
2014-08-23 05:24:00,56.5,52.0,30.30,North,351,0.0,0.0,85,0.00,CLR,CLR,0.00,WeatherDisplay:10.34,2014-08-23 09:24:00,
2014-08-23 05:29:00,56.3,51.8,30.30,NNW,347,0.0,0.0,85,0.00,CLR,CLR,0.00,WeatherDisplay:10.34,2014-08-23 09:29:00,